Regional Weather Roundup
Issued by NWS

Home | Current Version | Previous Version | Text Only | Print | Product List | Glossary Off
Versions: 1 2 3 4 5 6 7 8 9 10 11 12 13 14 15 16 17 18 19 20 21 22 23 24 25 26 27 28 29 30 31 32 33 34 35 36 37 38 39 40 41 42 43 44 45 46 47 48 49 50

000
ASUS43 KDTX 310110
RWRMI
MICHIGAN HOURLY REGIONAL WEATHER ROUNDUP
NATIONAL WEATHER SERVICE DETROIT/PONTIAC MI
900 PM EDT TUE AUG 30 2016

NOTE: "FAIR" INDICATES FEW OR NO CLOUDS BELOW 12,000 FEET WITH NO
SIGNIFICANT WEATHER AND/OR OBSTRUCTION TO VISIBILITY.

MIZ047>049-052>055-059>063-066>070-074>076-081>083-310200-
SOUTHEAST LOWER MICHIGAN

CITY           SKY/WX    TMP DP  RH WIND       PRES   REMARKS
ADRIAN         LGT RAIN  71  70  96 W6        30.07R
ALMA           PTCLDY    72  72 100 SW9       30.03S FOG
ANN ARBOR      CLOUDY    73  70  90 S3        30.03F
BAD AXE        CLOUDY    69  66  89 N8        30.04R
CARO           MOCLDY    72  71  98 CALM      30.02S FOG
DETROIT CITY   CLOUDY    76  64  66 S5        30.04R
DETROIT        CLOUDY    77  67  71 S6        30.04S
FLINT          CLOUDY    75  71  87 S5        30.04R
GROSSE ILE     CLOUDY    75  67  76 CALM      30.03S
HILLSDALE      RAIN      69  67  93 SW3       30.08S
HOWELL         CLOUDY    75  70  84 SW3       30.05R

CITY           SKY/WX    TMP DP  RH WIND       PRES   REMARKS
JACKSON        CLOUDY    74  68  81 SW10      30.05S
LAMBERTVILLE   LGT RAIN  75  71  86 CALM      30.06R
LANSING        CLOUDY    71  68  90 CALM      30.05S
LAPEER         FAIR      73  71  95 S3        30.04S
MASON          CLOUDY    75  66  74 CALM      30.06R
MONROE         LGT RAIN  72  68  87 CALM      30.04R
MT. CLEMENS    CLOUDY    73  65  78 S6        30.01S
PONTIAC        CLOUDY    76  67  73 SW3       30.04R
PORT HOPE        N/A     71  68  90 E8        30.02R
PORT HURON     CLOUDY    68  66  94 CALM      30.04R
TRI CITIES     CLOUDY    74  69  85 SW5       30.03R
MIDLAND        FAIR      74  68  80 SW3       30.01S
TROY           MOCLDY    80  60  50 SW5       30.06R
SAGINAW HB     MOCLDY    73  68  83 S5        30.02R
$$
MIZ043>046-050>051-056>058-064>065-071>073-077>080-310200-
SOUTHWEST LOWER MICHIGAN

CITY           SKY/WX    TMP DP  RH WIND       PRES   REMARKS
BATTLE CREEK   PTCLDY    74  71  91 S3        30.05S
BENTON HARBOR  CLOUDY    75  71  87 CALM      30.03S
BIG RAPIDS     PTCLDY    75  72  88 CALM      30.03S
COLDWATER      CLOUDY    69  69 100 SE5       30.07R
FREMONT        FAIR      72  70  95 CALM      30.03R
HOLLAND        PTCLDY    72  69  90 CALM      30.04S
GRAND RAPIDS   MOCLDY    75  68  78 W6        30.03F
IONIA          FAIR      72  68  86 S3        30.03S
KALAMAZOO      CLOUDY    75  70  84 SW3       30.04S
LUDINGTON      MOCLDY    71  71  98 SW3       30.02S
MARSHALL       CLOUDY    73  71  94 S6        30.05S
MOUNT PLEASANT PTCLDY    75  69  80 CALM      30.02R
MUSKEGON       CLOUDY    75  72  90 SW5       30.04R
SOUTH HAVEN    CLOUDY    74  73  95 CALM      30.04R
$$
MIZ016>042-310200-
NORTHERN LOWER MICHIGAN

CITY           SKY/WX    TMP DP  RH WIND       PRES   REMARKS
ALPENA         MOCLDY    71  68  90 CALM      30.02R
BEAVER ISLAND  CLOUDY    67  60  79 N7        30.05S
BELLAIRE       PTCLDY    71  67  87 CALM      30.02S
CADILLAC       PTCLDY    72  67  85 CALM      30.05R
CHARLEVOIX     CLOUDY    72  69  90 N6        30.06R
FRANKFORT      CLOUDY    73  70  90 CALM      30.02S
GAYLORD        CLEAR     73  62  68 CALM      30.05R
GRAYLING       PTCLDY    73  68  83 NW5       30.05R
HARBOR SPRINGS RAIN      70  67  92 W3        30.02S
HOUGHTON LAKE  PTCLDY    73  70  90 W3        30.04R
MANISTEE       MOCLDY    72  70  93 CALM      30.01F
OSCODA         RAIN      67  65  93 CALM      30.01S
PELLSTON       CLOUDY    71  68  90 N6        30.03R
ROGERS CITY    CLOUDY    71  64  78 N7        30.03R
TRAVERSE CITY  MOCLDY    76  70  82 CALM      30.01R
$$
MIZ007>008-015-310200-
EASTERN UPPER MICHIGAN

CITY           SKY/WX    TMP DP  RH WIND       PRES   REMARKS
KINROSS        CLEAR     63  59  87 NW12      30.04R
MACKINAC ISLAN PTCLDY    67  62  85 N10       30.03S
NEWBERRY       CLEAR     61  55  78 NW5       30.07R
S. S. MARIE    MOCLDY    64  60  87 NW9       30.03R
MUNISING         N/A     65  58  78 N8        30.07S
$$
MIZ004>006-011>014-085-310200-
CENTRAL UPPER MICHIGAN

CITY           SKY/WX    TMP DP  RH WIND       PRES   REMARKS
MANISTIQUE     CLEAR     63  54  72 N10       30.06R
ESCANABA       CLEAR     68  59  73 N9        30.06R
MENOMINEE      MOCLDY   N/A N/A N/A N5        30.04R
SAWYER-GWINN   CLEAR     61  55  82 N6        30.10R
$$
MIZ001>003-009>011-084-310200-
WESTERN UPPER MICHIGAN

CITY           SKY/WX    TMP DP  RH WIND       PRES   REMARKS
IRON MOUNTAIN  CLEAR     68  52  56 N9        30.07R
HOUGHTON       CLEAR     62  54  74 W6        30.10R
COPPER HARBOR    N/A     64  55  72 VRB5      30.08R
IRONWOOD       CLEAR     60  57  89 CALM      30.14R
$$

ABBREVIATIONS USED IN REMARKS
   TC - TEMPERATURE IN CELSIUS
  WCI - WIND CHILL INDEX
   HX - HEAT INDEX
  VSB - VISIBILITY





USA.gov is the U.S. government's official web portal to all federal, state and local government web resources and services.